Location: Friedrichshafen
(47.6598°N, 9.4819°E)
Time: 03:17:28
(UTC+01:00)

ISS - Pass Details

Date: 10 January 2018
Orbit: 402 x 407 km, 51.6° (Epoch: 21 January)

Event Time Altitude Azimuth Distance (km) Brightness Sun altitude
Exits shadow 04:58:26 11° 72° (ENE) 1,428 -0.3 -31.2°
Drops below altitude 10° 04:58:32 10° 73° (ENE) 1,468 -0.2 -31.2°
Sets 05:00:43 0° 81° (E) 2,330 1.2 -30.8°
